This demonstration page uses our WeatherBlox Daily Observations layout. Learn more.

Left ArrowRight Arrow

Hourly Observations for September 11, 2019

Temp ( °F °C ) Dew Point ( °F °C ) Humidity (%) Winds ( mph kmh ) Pressure ( in mb ) Visibility ( mi km ) Precip ( " mm )
12:53 am 00:53 Clear 76 24.4 67 19.4 74 74 S 14 22 29.88 1012 10 16 0.00 0.00
1:53 am 01:53 Clear 76 24.4 67 19.4 74 74 S 13 20 29.87 1011 10 16 0.00 0.00
2:53 am 02:53 Clear 75 23.9 67 19.4 76 76 S 15 24 29.85 1011 10 16 0.00 0.00
3:53 am 03:53 Clear 75 23.9 66 18.9 74 74 S 13 20 29.85 1011 10 16 0.00 0.00
4:53 am 04:53 Clear 75 23.9 66 18.9 74 74 S 13 20 29.85 1011 10 16 0.00 0.00
5:53 am 05:53 Clear 74 23.3 66 18.9 76 76 NNE 5 7 29.89 1012 10 16 0.00 0.00
6:53 am 06:53 Partly Cloudy 71 21.7 66 18.9 84 84 ESE 5 7 29.92 1013 10 16 0.00 0.00
7:11 am 07:11 Mostly Cloudy 71 21.7 66 18.9 84 84 SE 6 9 29.90 1013 10 16 0.00 0.00
7:19 am 07:19 Partly Cloudy 73 22.8 66 18.9 79 79 Calm 29.90 1012 10 16 0.00 0.00
7:53 am 07:53 Mostly Sunny 72 22.2 66 18.9 82 82 Calm 29.93 1014 10 16 0.00 0.00
8:53 am 08:53 Partly Cloudy 75 23.9 66 18.9 74 74 ESE 7 11 29.93 1013 10 16 0.00 0.00
9:53 am 09:53 Cloudy 76 24.4 67 19.4 74 74 ESE 12 19 29.93 1013 10 16 0.00 0.00
10:53 am 10:53 Cloudy 77 25 66 18.9 69 69 SSE 15 24 29.91 1013 10 16 0.00 0.00
11:53 am 11:53 Mostly Sunny 82 27.8 67 19.4 60 60 S 14 22 29.89 1012 10 16 0.00 0.00
12:53 pm 12:53 Mostly Sunny 82 27.8 67 19.4 60 60 S 12 19 29.88 1012 10 16 0.00 0.00
3:53 pm 15:53 Sunny 90 32.2 66 18.9 45 45 S 17 28 29.82 1010 10 16 0.00 0.00
4:53 pm 16:53 Sunny 89 31.7 64 17.8 43 43 S 20 31 29.81 1010 10 16 0.00 0.00
5:53 pm 17:53 Sunny 88 31.1 66 18.9 48 48 S 14 22 29.81 1009 10 16 0.00 0.00
6:53 pm 18:53 Sunny 86 30 66 18.9 51 51 S 13 20 29.80 1009 10 16 0.00 0.00
7:53 pm 19:53 Clear 83 28.3 66 18.9 57 57 SSE 15 24 29.80 1009 10 16 0.00 0.00
8:53 pm 20:53 Clear 81 27.2 65 18.3 58 58 SSE 12 19 29.81 1010 10 16 0.00 0.00
9:53 pm 21:53 Clear 78 25.6 65 18.3 64 64 SSE 13 20 29.81 1009 10 16 0.00 0.00
10:53 pm 22:53 Clear 78 25.6 63 17.2 60 60 S 15 24 29.76 1008 10 16 0.00 0.00
11:53 pm 23:53 Clear 77 25 63 17.2 62 62 S 10 17 29.81 1010 10 16 0.00 0.00

Powered by AerisWeather